TimeCDT,TemperatureF,Dew PointF,Humidity,Sea Level PressureIn,VisibilityMPH,Wind Direction,Wind SpeedMPH,Gust SpeedMPH,PrecipitationIn,Events,Conditions,WindDirDegrees,DateUTC
12:53 AM,73.0,64.0,73,29.96,10.0,SE,15.0,27.6,N/A,,Scattered Clouds,140,2013-09-12 05:53:00
1:53 AM,73.0,63.0,71,29.95,10.0,SE,17.3,26.5,N/A,,Partly Cloudy,140,2013-09-12 06:53:00
2:53 AM,72.0,63.0,73,29.94,10.0,SE,17.3,24.2,N/A,,Clear,130,2013-09-12 07:53:00
3:53 AM,71.1,62.1,73,29.93,10.0,SE,13.8,19.6,N/A,,Clear,140,2013-09-12 08:53:00
4:53 AM,70.0,62.1,76,29.93,10.0,SE,13.8,-,N/A,,Clear,140,2013-09-12 09:53:00
5:53 AM,70.0,63.0,78,29.93,10.0,SE,17.3,23.0,N/A,,Clear,130,2013-09-12 10:53:00
6:53 AM,70.0,63.0,78,29.93,10.0,SE,15.0,-,N/A,,Clear,130,2013-09-12 11:53:00
7:53 AM,69.1,63.0,81,29.96,10.0,SE,11.5,-,N/A,,Partly Cloudy,140,2013-09-12 12:53:00
8:53 AM,71.1,63.0,75,29.99,10.0,SE,11.5,-,N/A,,Overcast,140,2013-09-12 13:53:00
9:42 AM,73.4,62.6,69,30.12,10.0,SSE,11.5,19.6,N/A,,Overcast,150,2013-09-12 14:42:00
9:53 AM,73.9,63.0,68,29.99,10.0,SSE,15.0,20.7,N/A,,Overcast,150,2013-09-12 14:53:00
10:14 AM,75.2,62.6,65,30.13,10.0,SSE,12.7,21.9,N/A,,Overcast,150,2013-09-12 15:14:00
10:43 AM,77.0,62.6,61,30.14,10.0,SE,17.3,23.0,N/A,,Mostly Cloudy,140,2013-09-12 15:43:00
10:53 AM,75.9,62.1,62,30.01,10.0,SSE,15.0,23.0,N/A,,Scattered Clouds,150,2013-09-12 15:53:00
11:53 AM,80.1,61.0,52,30.00,10.0,SSE,12.7,24.2,N/A,,Partly Cloudy,150,2013-09-12 16:53:00
12:53 PM,81.0,60.1,49,29.99,10.0,SSE,11.5,20.7,N/A,,Mostly Cloudy,150,2013-09-12 17:53:00
1:53 PM,84.0,59.0,43,29.95,10.0,SE,16.1,29.9,N/A,,Mostly Cloudy,140,2013-09-12 18:53:00
2:53 PM,84.9,57.0,38,29.92,10.0,SE,16.1,24.2,N/A,,Mostly Cloudy,140,2013-09-12 19:53:00
3:53 PM,84.9,57.9,40,29.90,10.0,SE,15.0,25.3,N/A,,Partly Cloudy,140,2013-09-12 20:53:00
4:53 PM,87.1,55.9,35,29.88,10.0,SE,13.8,-,N/A,,Partly Cloudy,130,2013-09-12 21:53:00
5:53 PM,84.0,57.0,40,29.88,10.0,SE,17.3,21.9,N/A,,Partly Cloudy,130,2013-09-12 22:53:00
6:53 PM,82.9,55.9,39,29.88,10.0,ESE,13.8,-,N/A,,Clear,110,2013-09-12 23:53:00
7:53 PM,82.0,57.0,42,29.90,10.0,ESE,15.0,-,N/A,,Clear,120,2013-09-13 00:53:00
8:53 PM,80.1,57.9,47,29.91,10.0,SE,10.4,-,N/A,,Clear,130,2013-09-13 01:53:00
9:53 PM,79.0,55.9,45,29.93,10.0,SE,10.4,-,N/A,,Clear,130,2013-09-13 02:53:00
10:53 PM,78.1,57.0,48,29.94,10.0,SE,10.4,-,N/A,,Clear,130,2013-09-13 03:53:00
11:53 PM,75.9,55.9,50,29.93,10.0,SE,9.2,-,N/A,,Clear,140,2013-09-13 04:53:00